Content
SEND FEEDBACK

Daily
Averages
Monthly
Summary
United States of America

ELIZABETH, NEW JERSEY


Home > North America > United States > New Jersey
Elevation: 1 foot     Latitude: 40 42N     Longitude: 074 10W

WEATHER
 
SELECT A DAY
Number of Records: 189,442;   Date Range: 1/1/95 - 7/7/14
 
SHARE

PRINT THIS DATA

[ ← Previous Day ]
WEATHER ALMANAC - MARCH 8, 2013
[ Next Day → ]
[ °C ]   °F
Weather ElementAverageHighLow
Temperature34.2 °F41 °F (6:51 pm)30.2 °F (8:16 am)
Dewpoint31 °F33.8 °F (3:07 pm)28.9 °F (10:51 pm)
Humidity88.5 %100 % (8:16 am)65 % (6:51 pm)
Barometer30.06 in30.20 in (11:51 pm)30.01 in (3:51 am)
Wind Speed12.3 mph18.4 mph (8:51 am)
Wind Gust23 mph (8:51 am)
Weather ElementAverage
Visibility3.2 mi
Wind DirectionNNW (329.8 °)

Weather ElementTotal
Precipitation1.51 in
Heating Degree Days29.4 (Base 65)
Averaged from 43 records on March 8, 2013
WEATHER CONDITIONS BREAKOUT
WIND DIRECTION BREAKOUT
WEATHER BY HOUR - MARCH 8, 2013
[ °C ]   °F
Local TimeTemperatureDewpointHumidityBarometerVisibilityWind DirectionWind SpeedGust SpeedPrecipitationEventsConditions
12:51 AM33.1 °F32.0 °F96 %30.06 in1.5 miNNW (330°)5.8 mph0.04 inSnowLight Snow
1:51 AM33.1 °F32.0 °F96 %30.05 in1.5 miNNW (330°)10.4 mph0.04 inSnowLight Snow
1:58 AM33.8 °F30.2 °F87 %30.05 in2.0 miNNW (330°)10.4 mph0.00 inSnowLight Snow
2:51 AM33.1 °F30.9 °F92 %30.03 in2.0 miNNW (330°)10.4 mph0.00 inSnowLight Snow
3:51 AM33.1 °F30.9 °F92 %30.01 in2.0 miNNW (340°)11.5 mph0.01 inSnowLight Snow
3:58 AM33.8 °F30.2 °F87 %30.02 in4.0 miNNW (340°)10.4 mph0.00 inSnowLight Snow
4:12 AM33.8 °F30.2 °F87 %30.02 in1.5 miNNW (340°)15.0 mph19.6 mph0.00 inSnowLight Snow
4:51 AM33.8 °F30.2 °F87 %30.02 in2.0 miNNW (340°)10.4 mphSnowLight Snow
5:39 AM32.0 °F30.2 °F93 %30.02 in1.5 miNNW (340°)11.5 mph19.6 mph0.02 inSnowLight Snow
5:51 AM32.0 °F30.9 °F96 %30.01 in1.0 miNNW (340°)13.8 mph0.03 inSnowLight Snow
6:51 AM32.0 °F30.0 °F92 %30.02 in0.8 miNorth (350°)15.0 mph0.06 inSnowLight Snow
7:51 AM32.0 °F30.0 °F92 %30.03 in0.5 miNNW (330°)16.1 mph0.06 inFog-SnowSnow
8:16 AM30.2 °F30.2 °F100 %30.03 in0.8 miNNW (340°)16.1 mph0.02 inSnowLight Snow
8:23 AM32.0 °F30.2 °F93 %30.03 in0.5 miNNW (340°)15.0 mph21.9 mph0.03 inFog-SnowSnow
8:51 AM32.0 °F30.0 °F92 %30.04 in0.5 miNNW (340°)18.4 mph23.0 mph0.07 inFog-SnowSnow
9:03 AM32.0 °F30.2 °F93 %30.04 in0.5 miNNW (340°)15.0 mph0.02 inFog-SnowSnow
9:51 AM32.0 °F30.0 °F92 %30.05 in0.5 miNNW (340°)13.8 mph23.0 mph0.11 inFog-SnowSnow
10:10 AM32.0 °F30.2 °F93 %30.05 in0.2 miNNW (340°)11.5 mph23.0 mph0.06 inFog-SnowHeavy Snow
10:31 AM32.0 °F30.2 °F93 %30.05 in0.2 miNNW (340°)15.0 mph0.14 inSnowHeavy Snow
10:41 AM32.0 °F30.2 °F93 %30.05 in0.5 miNNW (330°)12.7 mph0.16 inSnowSnow
10:51 AM32.0 °F30.2 °F93 %30.05 in0.5 miNNW (330°)13.8 mphSnowSnow
11:20 AM32.0 °F30.2 °F93 %30.05 in0.2 miNNW (330°)11.5 mph0.08 inSnowHeavy Snow
11:30 AM32.0 °F30.2 °F93 %30.06 in0.5 miNNW (340°)10.4 mph0.10 inSnowSnow
11:51 AM32.0 °F30.9 °F96 %30.05 in0.8 miNNW (330°)13.8 mph0.13 inSnowLight Snow
12:01 PM32.0 °F30.2 °F93 %30.06 in0.8 miNW (320°)9.2 mph21.9 mph0.01 inSnowLight Snow
12:20 PM33.8 °F32.0 °F93 %30.05 in0.8 miNW (320°)8.1 mph0.04 inSnowLight Snow
12:51 PM33.1 °F32.0 °F96 %30.05 in1.0 miNW (320°)9.2 mph0.06 inSnowLight Snow
1:11 PM33.8 °F32.0 °F93 %30.05 in1.0 miNNW (330°)10.4 mph0.01 inSnowLight Snow
1:48 PM33.8 °F32.0 °F93 %30.04 in1.8 miNNW (340°)6.9 mph0.05 inSnowLight Snow
1:51 PM34.0 °F32.0 °F92 %30.04 in1.8 miNNW (340°)10.4 mph0.06 inSnowLight Snow
2:14 PM33.8 °F32.0 °F93 %30.05 in1.8 miNorth (10°)6.9 mph0.02 inRain-SnowLight Snow
2:51 PM34.0 °F33.1 °F96 %30.05 in1.8 miNW (320°)8.1 mph0.05 inRain-SnowLight Snow
3:07 PM35.6 °F33.8 °F93 %30.05 in2.5 miNNW (330°)10.4 mph0.01 inRain-SnowLight Rain
3:20 PM35.6 °F33.8 °F93 %30.05 in8.0 miNNW (340°)8.1 mph0.01 inRain-SnowLight Rain
3:51 PM37.0 °F33.1 °F86 %30.06 in10.0 miNorth (350°)11.5 mph0.01 inRain-SnowLight Rain
4:51 PM39.0 °F30.9 °F73 %30.08 in10.0 miNorth (360°)18.4 mph0.00 inOvercast
5:51 PM39.9 °F33.1 °F77 %30.11 in10.0 miNorth (360°)13.8 mph20.7 mphMostly Cloudy
6:51 PM41.0 °F30.0 °F65 %30.15 in10.0 miNorth (360°)18.4 mphMostly Cloudy
7:51 PM41.0 °F30.9 °F67 %30.16 in10.0 miNNW (330°)11.5 mphMostly Cloudy
8:51 PM39.9 °F32.0 °F73 %30.19 in10.0 miNNW (340°)15.0 mphMostly Cloudy
9:51 PM39.9 °F30.9 °F70 %30.19 in10.0 miNNW (340°)17.3 mphMostly Cloudy
10:51 PM39.0 °F28.9 °F67 %30.19 in10.0 miNorth (350°)16.1 mph20.7 mphScattered Clouds
11:51 PM37.9 °F28.9 °F70 %30.20 in10.0 miNNW (340°)11.5 mphScattered Clouds
Hourly data recorded from KEWR, located miles away from Elizabeth, New Jersey







STORIES FROM OUR PARTNERS